Kezdőlap
METAR-TAF:

METAR-TAF

Repülőterek :

Black River Falls, Wisconsin, Amerikai Egyesült Államok

földrajzi szélesség: 44-15-03N, földrajzi hosszúság: 090-51-19W, magasság: 255 m

Jelenlegi meteorológiai megfigyelések

A jelentés 37 perccel ezelõtt készült, 21:35 UTC
Szélcsend
Hőmérséklet 27°C
Páratartalom 54%
Légköri nyomás 1020 hPa
Látótávolság: 16.1 km
Derült ég

METAR: KBCK 212135Z AUTO 00000KT 10SM CLR 27/17 A3011 RMK AO2 T02650174

Idő: 17:12 (22:12 UTC)


TAF: hiányzik

Meteorológiai megfigyelések és előrejelzések több, mint 4000 repülőtéren (METAR és TAF jelentéseket).

A térképen piros és sárga pontok jelzik az elérhető meteorológiai állomásokat.

Mozgassa az egeret a pont fölött, hogy megjelenjen az állomás neve.

Azután kattintson az időjárási megfigyelések és előrejelzések megtekintéséhez.

A térkép megváltoztatása: kattintson a fekete keresztel jelölt zöld gombra ráközelítéshez, a vonallal jelölt zöld gombra távolításhoz, vagy a zöld nyilakra a szomszédos térképek eléréséhez.


METAR-TAF: